Location: Black River Observatory
(43.1000°N, 82.6200°W)
Time: 23:32:07
(UTC-05:00)

Daily predictions for brighter satellites

Satellite Brightness Start Highest point End
(mag) Time Altitude Azimuth Time Altitude Azimuth Time Altitude Azimuth
Cosmos 1992 Rocket 4.0 18:29:04 10° NNW 18:34:19 72° ENE 18:39:32 10° SSE
Cosmos 1833 Rocket 4.1 18:30:33 10° SW 18:35:48 39° WNW 18:41:04 10° NNE
FREGAT/IRIS 3.8 18:35:29 10° SE 18:38:02 24° ENE 18:40:36 10° NNE
Cosmos 407 Rocket 4.2 18:33:40 10° SSE 18:38:16 33° E 18:42:58 10° NE
ERBS 3.7 18:37:26 10° WNW 18:40:45 42° SW 18:44:02 10° SSE
Cosmos 1346 Rocket 3.1 18:38:16 10° NNW 18:42:13 74° W 18:46:06 10° S
COSMOS 2428 4.5 18:39:36 10° NNE 18:42:26 14° NE 18:45:15 10° ENE
Meteor 1-25 Rocket 4.4 18:37:40 10° SSE 18:43:04 52° E 18:48:33 10° NNE
ALOS 3.2 18:39:10 10° SE 18:43:05 27° ENE 18:47:01 10° N
FENGYUN 3A 4.4 18:40:07 10° SE 18:44:48 31° ENE 18:49:32 10° N
Cosmos 1975 Rocket 3.1 18:44:08 10° N 18:48:29 83° W 18:52:47 10° S
Thor Agena Rocket 4.3 18:43:57 10° N 18:48:55 56° WNW 18:53:50 10° SSW
SKYMED 2 3.7 18:44:57 10° N 18:49:18 83° WNW 18:53:38 10° SSW
H-2A R/B 4.2 18:48:49 10° ESE 18:51:17 17° ENE 18:53:47 10° NNE
Cosmos 1238 Rocket 3.8 18:52:46 10° NNE 18:54:40 15° ENE 18:55:56 12° E
Cosmos 1812 2.6 18:54:07 10° N 18:57:59 69° E 19:01:49 10° SSE
Cosmos 1190 Rocket 4.0 18:57:37 10° S 19:02:43 63° ESE 19:07:52 10° NNE
Cosmos 1140 Rocket 4.5 19:02:23 10° SSE 19:06:26 24° E 19:10:31 10° NE
Cosmos 1536 Rocket 3.8 19:02:56 10° N 19:07:16 49° ENE 19:11:36 10° SSE
Nadezhda 1 Rocket 4.0 19:02:29 10° N 19:08:36 85° W 19:14:40 10° S
Cosmos 2360 Rocket 2.7 19:08:18 10° NNW 19:13:37 40° ENE 19:18:46 11° SE
Spot 2 Rocket 3.8 19:09:08 10° SE 19:13:52 42° ENE 19:18:38 10° N
METEOR-M 4.2 19:08:45 10° SSE 19:14:06 83° WSW 19:19:29 10° NNW
Cosmos 1980 Rocket 4.2 19:09:15 10° NW 19:14:12 31° WSW 19:19:07 10° SSW
NOAA 12 4.3 19:09:06 10° S 19:14:25 80° WSW 19:19:47 10° NNW
DNEPR-1 R/B 3.4 19:10:10 10° NW 19:14:28 88° ENE 19:18:43 10° SSE
Resurs 01 Rocket 1.9 19:12:27 10° SE 19:16:38 43° ENE 19:20:49 10° N
Cosmos 2219 Rocket 3.9 19:13:50 10° NNE 19:16:41 14° NE 19:17:49 13° ENE
GEOS 3 Rocket 3.6 19:12:46 10° NE 19:17:59 64° SE 19:23:13 10° SSW
Cosmos 2181 Rocket 4.1 19:13:39 10° N 19:19:44 52° ENE 19:25:52 10° SSE
CENTAUR R/B 4.2 19:12:55 10° NW 19:20:26 48° WSW 19:28:20 10° S
Tiangong 2 1.5 19:18:08 10° W 19:21:08 53° SSW 19:22:43 24° SE
Cosmos 1602 4.1 19:19:40 10° SSE 19:23:16 39° E 19:26:55 10° NNE
SL-19 R/B 4.3 19:19:50 10° SSE 19:25:22 63° ENE 19:31:16 10° N
Envisat 4.2 19:30:10 21° ENE 19:30:16 21° ENE 19:34:00 10° NNE
BREEZE-M DEB (TANK) 3.5 19:27:43 10° NW 19:30:35 50° NNE 19:33:50 23° E
Cosmos 1954 Rocket 4.1 19:26:00 10° S 19:31:01 53° ESE 19:36:06 10° NNE
HJ-1C 3.2 19:27:54 10° SSE 19:31:15 81° ENE 19:34:38 10° N
ATLAS CENTAUR R/B 4.4 19:31:30 10° NW 19:32:11 10° NNW 19:32:52 10° NNW
Cosmos 1833 4.3 19:28:45 10° S 19:34:17 53° ESE 19:39:46 10° NE
Cosmos 1633 2.5 19:34:31 10° S 19:38:09 65° E 19:41:49 10° NNE
Cosmos 2333 Rocket 3.8 19:34:36 10° N 19:38:15 17° NE 19:38:33 17° NE
SJ-6B 3.7 19:34:57 10° S 19:38:54 52° W 19:42:47 10° NNW
Cosmos 1300 Rocket 3.5 19:36:42 10° S 19:41:03 63° E 19:45:26 10° NNE
Cosmos 2184 Rocket 4.4 19:35:39 10° SSE 19:41:22 37° E 19:47:02 10° NNE
TSX-5 3.1 19:38:18 10° SSW 19:41:27 63° ESE 19:41:57 53° ENE
Resurs 1-3 3.5 19:37:26 10° SSE 19:41:47 67° ENE 19:46:09 10° N
Cosmos 2074 Rocket 4.4 19:36:07 10° SSE 19:41:48 39° E 19:47:33 10° NNE
Cosmos 1709 Rocket 3.9 19:36:44 10° S 19:42:59 89° E 19:49:12 10° N
FengYun 1-2 T 4.2 19:38:36 10° SSE 19:44:04 84° WSW 19:49:37 10° NNW
USA 186 4.3 19:48:25 11° N 19:48:25 11° N 19:48:34 10° N
SL-16 R/B 3.2 19:40:40 10° NW 19:46:06 48° WSW 19:51:30 10° S
Gbstr 26 Del rocket 4.0 19:45:01 10° SSW 19:47:22 24° SSE 19:47:22 24° SSE
Meteor 1-19 Rocket 4.1 19:43:21 10° N 19:49:01 77° E 19:54:46 10° SSE
Cosmos 1340 3.3 19:54:25 10° NNW 19:58:09 57° W 20:01:51 10° S
Cosmos 1818 3.7 19:55:23 10° SW 20:00:49 73° NW 20:05:28 15° NNE
Cosmos 1461 4.3 19:57:36 10° NW 20:01:17 36° WSW 20:04:50 11° S
Meteor 1-13 Rocket 4.4 19:56:43 10° NNW 20:02:14 73° W 20:07:50 10° S
Cosmos 1536 4.0 19:59:10 10° S 20:08:16 - NNE 20:01:14 29° S
Cosmos 2322 Rocket 3.9 19:59:40 10° NW 20:04:37 32° WSW 20:09:32 10° SSW
Cosmos 2285 Rocket 4.4 19:58:49 10° N 20:04:55 42° ENE 20:05:48 40° E
Cosmos 1741 Rocket 4.0 20:04:42 10° S 20:09:41 55° ESE 20:09:41 55° ESE
Okean 1 Rocket 3.1 20:05:27 10° S 20:09:55 83° W 20:14:27 10° N
Helios 1A 2.9 20:11:47 61° S 20:12:30 87° WSW 20:16:41 10° NNW
Genesis I 4.4 20:08:58 10° NNW 20:11:31 33° N 20:11:31 33° N
CZ-2D R/B 3.6 20:12:52 41° SSW 20:13:59 64° W 20:17:47 10° NNW
Cosmos 2322 3.8 20:10:07 10° NNW 20:15:52 79° WSW 20:18:57 28° SSE
DELTA 2 R/B (1) 4.1 20:11:07 10° W 20:16:31 49° SSW 20:17:41 42° SSE
Meteor 1-23 Rocket 4.1 20:10:53 10° N 20:16:44 78° E 20:19:23 34° SSE
ATLAS 2A CENTAUR R/B 4.5 20:16:23 10° S 20:18:32 13° SSE 20:18:32 13° SSE
ALOS 4.0 20:16:13 10° SSW 20:20:24 33° W 20:24:38 10° NNW
Cosmos 1570 Rocket 3.8 20:15:48 10° NNW 20:21:03 81° ENE 20:21:42 68° SE
Okean 1-7 Rocket 3.7 20:19:19 10° NNW 20:23:52 73° W 20:24:48 54° SSW
Spot 1 4.4 20:24:22 51° SW 20:25:02 59° WSW 20:29:06 10° NNW
H-2A R/B 4.3 20:21:59 10° SSW 20:25:19 33° W 20:28:44 10° NNW
Meteor 2-4 Rocket 3.8 20:21:35 10° NNW 20:27:10 71° W 20:31:01 20° S
COSMOS 2428 2.5 20:22:06 10° NNW 20:27:47 71° ENE 20:27:55 71° ENE
Cosmos 2237 4.1 20:22:42 10° NNW 20:28:29 89° NE 20:29:27 64° SSE
Cosmos 2333 4.2 20:26:40 10° NNW 20:32:05 66° NE 20:32:05 66° NE
Helios 1B rocket 4.3 20:38:47 23° SW 20:38:47 23° SW 20:40:25 10° SSW
Cosmos 2237 Rocket 3.6 20:34:58 10° N 20:37:59 25° NNE 20:37:59 25° NNE
Cosmos 1025 Rocket 4.0 20:37:50 10° NNW 20:40:59 43° NW 20:40:59 43° NW
Cosmos 2208 Rocket 4.2 20:38:32 10° NNW 20:43:59 71° WSW 20:44:13 70° SW
Resurs 01 Rocket 4.3 20:50:14 10° SW 20:53:18 18° W 20:56:22 10° NW
Cosmos 2219 3.9 20:47:35 10° SSW 20:51:31 46° SSW 20:51:31 46° SSW
Cosmos 2360 Rocket 3.8 20:52:32 10° NW 20:57:28 31° WSW 21:00:37 19° SSW
Cosmos 2219 Rocket 3.1 20:56:02 10° NNW 20:59:34 40° NNW 20:59:34 40° NNW
Envisat 4.2 21:10:22 39° NW 21:10:22 39° NW 21:13:52 10° NNW
SL-16 R/B 4.4 21:06:25 10° N 21:07:43 15° N 21:07:43 15° N
USA 229 DEB 3.8 21:08:28 10° NW 21:15:01 75° WNW 21:15:01 75° WNW
USA 229 3.8 21:08:34 10° NW 21:15:05 74° WNW 21:15:05 74° WNW
Cosmos 2333 Rocket 3.6 21:17:35 10° NNW 21:20:35 32° NNW 21:20:35 32° NNW
ATLAS 2AS CENTAUR R/B 4.4 21:27:06 10° NNW 21:32:43 25° NNE 21:32:43 25° NNE
